Location: Albany
(35.0000°S, 118.0000°E)
Time: 06:41:14
(UTC-04:00)

ERS-1 Rocket - Visible Passes

Search period start: 31 October 2014 00:00
Search period end: 09 November 2014 23:00
Orbit: 756 x 758 km, 98.7° (Epoch: 30 October)

Date Brightness Start Highest point End Pass type
(mag) Time Alt. Az. Time Alt. Az. Time Alt. Az.
31 Oct 3.6 07:16:04 10° SSE 07:20:39 34° E 07:25:11 10° NNE visible
31 Oct 5.2 08:55:12 10° SSW 08:59:13 24° WSW 09:03:13 10° WNW visible
01 Nov 3.6 08:15:24 10° S 08:20:24 59° WSW 08:25:20 10° NNW visible
02 Nov 3.1 06:36:21 10° SSE 06:41:21 55° E 06:46:16 10° N visible
02 Nov 5.8 08:16:43 10° SSW 08:19:37 16° WSW 08:22:31 10° W visible
03 Nov 4.5 07:36:17 10° S 07:40:55 36° WSW 07:45:30 10° NW visible
04 Nov 2.9 06:56:52 10° SSE 07:01:59 89° ENE 07:07:02 10° NNW visible
05 Nov 3.6 06:18:12 10° SSE 06:22:50 35° E 06:27:24 10° NNE visible
05 Nov 5.3 07:57:25 10° SSW 08:01:22 23° WSW 08:05:18 10° WNW visible
06 Nov 3.6 07:17:34 10° S 07:22:33 57° WSW 07:27:29 10° NNW visible
07 Nov 3.0 06:38:30 10° SSE 06:43:31 57° E 06:48:27 10° N visible
07 Nov 5.8 08:18:58 10° SSW 08:21:45 15° WSW 08:24:32 10° W visible
08 Nov 4.6 07:38:28 10° S 07:43:03 35° WSW 07:47:37 10° NW visible
09 Nov 3.0 06:59:01 10° SSE 07:04:08 88° WSW 07:09:10 10° NNW visible
